User: anonymous   Login
Location: Caltech
(34.1382°N, 118.1253°W)
Time: 14:39:58
(UTC-07:00)
Language:

Cosmos 1408 Rocket - Orbit

View from above orbital plane
View from above orbital plane
View from above satellite
View from above satellite

Ground track
Ground track

The orbit data is extracted from the following two-line orbital elements,

1 13553U 82092B   16119.91302608 +.00000156 +00000-0 +15828-4 0  9995
2 13553 082.5683 260.0188 0020773 337.6284 138.1199 14.84048168794509
Epoch (UTC): 28 April 2016 21:54:45
Eccentricity: 0.0020773
inclination: 82.5683°
perigee height: 602 km
apogee height: 631 km
right ascension of ascending node: 260.0188°
argument of perigee: 337.6284°
revolutions per day: 14.84048168
mean anomaly at epoch: 138.1199°
orbit number at epoch: 79450

The dashed part of the orbit path shows where the satellite is in the earth's shadow,  

DLR